<?xml version="1.0"?>
<gpx xmlns="http://www.topografix.com/GPX/1/1" xmlns:xsi="http://www.w3.org/2001/XMLSchema-instance" version="1.1" creator="GPX RubyGem 1.0.0 -- http://dougfales.github.io/gpx/" xsi:schemaLocation="http://www.topografix.com/GPX/1/1 http://www.topografix.com/GPX/1/1/gpx.xsd">
  <metadata>
    <name/>
    <time>2026-05-10T00:37:41+00:00</time>
    <bound minlat="90.0" minlon="180.0" maxlat="-90.0" maxlon="-180.0"/>
  </metadata>
  <trk>
    <name/>
    <trkseg>
      <trkpt lat="50.933823" lon="13.015648">
        <time>1970-01-01T00:00:00+00:00</time>
        <ele>244.0</ele>
      </trkpt>
      <trkpt lat="50.93384" lon="13.015614">
        <time>1970-01-01T00:00:00+00:00</time>
        <ele>244.0</ele>
      </trkpt>
      <trkpt lat="50.93399" lon="13.015823">
        <time>1970-01-01T00:00:00+00:00</time>
        <ele>244.0</ele>
      </trkpt>
      <trkpt lat="50.934208" lon="13.015851">
        <time>1970-01-01T00:00:00+00:00</time>
        <ele>245.0</ele>
      </trkpt>
      <trkpt lat="50.936048" lon="13.01582">
        <time>1970-01-01T00:00:00+00:00</time>
        <ele>245.0</ele>
      </trkpt>
      <trkpt lat="50.935874" lon="13.016913">
        <time>1970-01-01T00:00:00+00:00</time>
        <ele>244.0</ele>
      </trkpt>
      <trkpt lat="50.935198" lon="13.019583">
        <time>1970-01-01T00:00:00+00:00</time>
        <ele>245.0</ele>
      </trkpt>
      <trkpt lat="50.935131" lon="13.019817">
        <time>1970-01-01T00:00:00+00:00</time>
        <ele>244.0</ele>
      </trkpt>
      <trkpt lat="50.934791" lon="13.020722">
        <time>1970-01-01T00:00:00+00:00</time>
        <ele>243.0</ele>
      </trkpt>
      <trkpt lat="50.934474" lon="13.021347">
        <time>1970-01-01T00:00:00+00:00</time>
        <ele>244.0</ele>
      </trkpt>
      <trkpt lat="50.934414" lon="13.021412">
        <time>1970-01-01T00:00:00+00:00</time>
        <ele>244.0</ele>
      </trkpt>
      <trkpt lat="50.934414" lon="13.021412">
        <time>1970-01-01T00:00:00+00:00</time>
        <ele>244.0</ele>
      </trkpt>
      <trkpt lat="50.934258" lon="13.021581">
        <time>1970-01-01T00:00:00+00:00</time>
        <ele>244.0</ele>
      </trkpt>
      <trkpt lat="50.933097" lon="13.022063">
        <time>1970-01-01T00:00:00+00:00</time>
        <ele>244.0</ele>
      </trkpt>
      <trkpt lat="50.932872" lon="13.022332">
        <time>1970-01-01T00:00:00+00:00</time>
        <ele>244.0</ele>
      </trkpt>
      <trkpt lat="50.932688" lon="13.022391">
        <time>1970-01-01T00:00:00+00:00</time>
        <ele>244.0</ele>
      </trkpt>
      <trkpt lat="50.932215" lon="13.02209">
        <time>1970-01-01T00:00:00+00:00</time>
        <ele>247.0</ele>
      </trkpt>
      <trkpt lat="50.933313" lon="13.018794">
        <time>1970-01-01T00:00:00+00:00</time>
        <ele>244.0</ele>
      </trkpt>
      <trkpt lat="50.933928" lon="13.017107">
        <time>1970-01-01T00:00:00+00:00</time>
        <ele>245.0</ele>
      </trkpt>
      <trkpt lat="50.934129" lon="13.016631">
        <time>1970-01-01T00:00:00+00:00</time>
        <ele>244.0</ele>
      </trkpt>
      <trkpt lat="50.934146" lon="13.016486">
        <time>1970-01-01T00:00:00+00:00</time>
        <ele>245.0</ele>
      </trkpt>
      <trkpt lat="50.934128" lon="13.016266">
        <time>1970-01-01T00:00:00+00:00</time>
        <ele>245.0</ele>
      </trkpt>
      <trkpt lat="50.93408" lon="13.016082">
        <time>1970-01-01T00:00:00+00:00</time>
        <ele>245.0</ele>
      </trkpt>
      <trkpt lat="50.93399" lon="13.015823">
        <time>1970-01-01T00:00:00+00:00</time>
        <ele>244.0</ele>
      </trkpt>
      <trkpt lat="50.93384" lon="13.015614">
        <time>1970-01-01T00:00:00+00:00</time>
        <ele>244.0</ele>
      </trkpt>
      <trkpt lat="50.933823" lon="13.015648">
        <time>1970-01-01T00:00:00+00:00</time>
        <ele>244.0</ele>
      </trkpt>
    </trkseg>
  </trk>
</gpx>
